[[{"header":{"parameterUnit":"m.s-1","parameterCategory":1,"la1":30.2991,"la2":30.254,"lo1":-89.0895,"lo2":-89.0444,"dy":0.0017,"dx":0.0017,"nx":28,"ny":28,"refTime":"2024-05-19T03:00:00:Z","depth":0,"parameterNumber":2,"parameterNumberName":"U-component_of_WINDS"},"data":[0,0,0,0,0,0,0,0,0,0,0,0,0,0,0,0,0,0,0,0,0,0,0,0,0,0,0,0,0,0,0,0,0,0,0,0,0,0,0,0,0,0,0,0,0,0,0,0,0,0,0,0,0,0,0,0,0,0,2.1103,2.1104,0,2.1226,2.1227,2.1228,2.1236,2.1234,2.1233,2.1232,2.1365,2.137,2.1374,0,0,0,0,0,0,0,0,0,0,0,0,0,2.0882,2.0886,2.1102,2.1104,2.1106,2.1225,2.1227,2.1229,2.1236,2.1234,2.1232,2.1231,2.1363,2.1369,2.1375,0,0,0,0,0,0,0,0,0,0,0,0,0,2.0989,2.0888,2.1102,2.1123,2.1126,2.1225,2.1227,2.1229,2.1236,2.1234,2.1232,2.123,2.1361,2.1368,2.1376,2.1464,0,0,2.1398,2.1401,0,0,0,0,0,0,0,0,2.0983,2.0997,2.1119,2.1122,2.1126,2.1213,2.1198,2.1308,2.1237,2.1195,2.1231,2.1229,2.1317,2.1327,2.1355,2.147,2.1475,2.1399,2.1403,2.1406,2.1408,0,0,0,0,0,0,0,2.0976,2.0992,2.1151,2.1121,2.1125,2.113,2.1142,2.1219,2.1267,2.1198,2.1199,2.1213,2.1318,2.1348,2.1359,2.1477,2.1398,2.1405,2.1409,2.1412,2.1674,2.1677,0,0,0,0,0,0,2.0963,2.0986,2.1147,2.1155,2.1047,2.1135,2.115,2.1187,2.1266,2.1275,2.1215,2.1213,2.1337,2.135,2.1363,2.1474,2.1406,2.1413,2.1417,2.1672,2.1675,2.1677,0,0,0,0,0,0,2.0958,2.0977,2.1143,2.1071,2.1092,2.1141,2.1184,2.1191,2.1221,2.1278,2.1287,2.1237,2.1336,2.1353,2.1439,2.1479,2.1416,2.1423,2.1669,2.1673,2.1676,2.1695,0,0,0,0,0,0,2.0952,2.0975,2.1007,2.1071,2.1096,2.1214,2.1186,2.1195,2.1233,2.1231,2.1301,2.131,2.1335,2.1428,2.1446,2.1488,2.1429,2.1665,2.167,2.1675,2.1691,2.1699,2.1705,0,0,0,0,0,2.0944,2.1009,2.1009,2.1028,2.1136,2.1216,2.123,2.1256,2.1236,2.127,2.1307,2.1308,2.1471,2.1437,2.1457,2.1502,2.1663,2.1669,2.1675,2.1688,2.1697,2.1705,0,0,0,0,0,0,2.095,2.1017,2.1018,2.1105,2.1154,2.1217,2.126,2.1264,2.1322,2.1319,2.135,2.1366,2.1452,2.1485,2.1446,2.1593,2.1565,2.1575,2.1568,2.1578,2.1585,2.1576,2.1435,0,0,0,0,0,2.0961,2.1018,2.1074,2.1145,2.117,2.1211,2.1246,2.1262,2.1315,2.1337,2.138,2.1434,2.1498,2.1539,2.1601,2.1695,2.1712,2.1736,2.1743,2.1749,2.1758,2.1814,2.1827,2.1696,2.1696,2.1696,0,0,2.0986,2.1029,2.1063,2.1148,2.1188,2.1249,2.1228,2.1293,2.134,2.1347,2.1431,2.1465,2.1528,2.1619,2.1661,2.1649,2.1798,2.1756,2.176,2.1767,2.1822,2.1834,2.1845,2.17,2.17,2.1699,0,0,2.1062,2.1098,2.1163,2.1204,2.1264,2.1291,2.1306,2.1369,2.1391,2.1475,2.1483,2.154,2.1648,2.1693,2.173,2.1825,2.1829,2.1844,2.1883,2.1938,2.1948,2.1957,2.1994,2.2007,2.1852,2.1852,2.1852,0,2.1085,2.1174,2.1197,2.1262,2.13,2.1308,2.1376,2.1415,2.1493,2.1521,2.1505,2.1643,2.1685,2.1789,2.1812,2.184,2.1862,2.1837,2.1944,2.1954,2.1963,2.1999,2.2012,2.1854,2.1854,2.1854,2.1854,0,2.1202,2.1264,2.131,2.1384,2.1427,2.1493,2.1528,2.157,2.1582,2.1611,2.1699,2.175,2.1823,2.1849,2.1861,2.1955,2.1946,2.1937,2.191,2.1976,2.2011,2.2024,2.1856,2.1856,2.1855,2.1855,0,0,2.1287,2.1372,2.1389,2.1423,2.1491,2.1541,2.1609,2.1678,2.1715,2.1769,2.183,2.1921,2.1913,2.1956,2.1973,2.202,2.2096,2.2006,2.2008,2.2024,2.2207,2.2216,2.2231,2.2099,2.2101,2.2103,2.2203,0,2.1373,2.1491,2.1514,2.1618,2.1678,2.1687,2.1746,2.1796,2.1826,2.1883,2.1917,2.1982,2.1965,2.1991,2.2038,2.2077,2.2134,2.207,2.2159,2.2162,2.2146,2.2249,2.2258,2.235,2.2216,2.2219,2.222,0,2.1489,2.1545,2.1654,2.1716,2.1742,2.1795,2.1862,2.1915,2.1973,2.1992,2.2039,2.2052,2.2126,2.2094,2.2199,2.2155,2.2193,2.2217,2.2222,2.2234,2.2197,2.2267,2.2379,2.2394,2.2241,2.2239,2.2238,0,2.1544,2.1646,2.1726,2.1755,2.1828,2.1866,2.1898,2.1953,2.1994,2.2054,2.2082,2.2149,2.2187,2.2241,2.2273,2.2246,2.2377,2.2347,2.2398,2.2397,2.2427,2.2426,2.2551,2.2446,2.2446,2.2446,2.2445,0,2.164,2.1708,2.1752,2.1801,2.1879,2.1905,2.1982,2.2015,2.2064,2.2122,2.2133,2.2189,2.2226,2.2287,2.2313,2.2398,2.2414,2.2434,2.2441,2.2435,2.2433,2.2463,2.2458,2.2449,2.2449,2.2448,2.2447,0,2.1716,2.1747,2.1835,2.1897,2.1914,2.1969,2.2023,2.2073,2.2102,2.2176,2.2195,2.2242,2.2315,2.2352,2.2443,2.246,2.2558,2.2559,2.2538,2.2541,2.2591,2.2588,2.2743,2.2766,2.2643,2.2644,2.2645,0,2.1776,2.1829,2.1895,2.1934,2.1967,2.2029,2.2071,2.21,2.2144,2.2214,2.2257,2.2329,2.2389,2.2506,2.2551,2.2621,2.2626,2.2676,2.2637,2.263,2.2631,2.2629,2.2636,2.2684,2.2685,2.2686,2.2686,0,2.1882,2.1895,2.1953,2.2018,2.2067,2.212,2.2173,2.2204,2.2242,2.2291,2.2365,2.2411,2.2504,2.2577,2.2651,2.2688,2.2696,2.2698,2.2714,2.271,2.2697,2.2709,2.256,2.2695,2.2694,2.2693,2.2693,2.2693,2.1954,2.2002,2.2057,2.2123,2.2165,2.2214,2.2264,2.2299,2.236,2.2437,2.245,2.2529,2.2588,2.2688,2.2727,2.2792,2.2781,2.2804,2.281,2.2816,2.2821,2.2684,2.2805,2.2805,2.2804,2.2804,2.2804,0,2.2064,2.2099,2.2159,2.2231,2.2284,2.2282,2.234,2.2385,2.2454,2.2507,2.2565,2.2652,2.2723,2.2773,2.2847,2.2889,2.2895,2.2908,2.2907,2.2916,2.2824,2.2804,2.2903,2.2903,2.2902,2.2902,2.2902,2.2902,2.2127,2.2209,2.2229,2.2333,2.2368,2.2444,2.2478,2.2525,2.2567,2.2662,2.2721,2.2752,2.2805,2.2883,2.295,2.2963,2.2991,2.3005,2.3019,2.2932,2.2922,2.2912,2.2894,2.301,2.301,2.3106,2.3107,2.3108]},{"header":{"parameterUnit":"m.s-1","parameterCategory":1,"la1":30.2991,"la2":30.254,"lo1":-89.0895,"lo2":-89.0444,"dy":0.0017,"dx":0.0017,"nx":28,"ny":28,"refTime":"2024-05-19T03:00:00:Z","depth":0,"parameterNumber":3,"parameterNumberName":"V-component_of_WINDS"},"data":[0,0,0,0,0,0,0,0,0,0,0,0,0,0,0,0,0,0,0,0,0,0,0,0,0,0,0,0,0,0,0,0,0,0,0,0,0,0,0,0,0,0,0,0,0,0,0,0,0,0,0,0,0,0,0,0,0,0,0.1823,0.1823,0,0.1794,0.1794,0.1793,0.1759,0.1759,0.1758,0.1758,0.1725,0.1725,0.1725,0,0,0,0,0,0,0,0,0,0,0,0,0,0.1843,0.1843,0.1823,0.1823,0.1822,0.1794,0.1794,0.1793,0.1759,0.1759,0.1758,0.1757,0.1726,0.1725,0.1725,0,0,0,0,0,0,0,0,0,0,0,0,0,0.1826,0.1843,0.1823,0.1802,0.18,0.1794,0.1794,0.1793,0.1759,0.1759,0.1758,0.1757,0.1726,0.1725,0.1725,0.1737,0,0,0.1723,0.1723,0,0,0,0,0,0,0,0,0.1827,0.1825,0.1805,0.1803,0.1801,0.178,0.1789,0.1774,0.176,0.1775,0.1758,0.1757,0.1744,0.1742,0.1738,0.1735,0.1734,0.1723,0.1723,0.1722,0.1722,0,0,0,0,0,0,0,0.1828,0.1826,0.1812,0.1805,0.1802,0.1792,0.1789,0.1786,0.1764,0.1773,0.1771,0.1768,0.1742,0.1739,0.1737,0.1733,0.1723,0.1722,0.1722,0.1722,0.1733,0.1734,0,0,0,0,0,0,0.1833,0.1828,0.1812,0.1811,0.1812,0.1792,0.1789,0.1787,0.1764,0.176,0.1769,0.1766,0.174,0.1738,0.1736,0.1745,0.1722,0.1722,0.1721,0.1732,0.1733,0.1734,0,0,0,0,0,0,0.1834,0.1832,0.1814,0.1818,0.1815,0.1793,0.1791,0.1787,0.1783,0.176,0.1756,0.1769,0.1739,0.1737,0.1736,0.1743,0.1722,0.1721,0.1732,0.1733,0.1734,0.1766,0,0,0,0,0,0,0.1835,0.1833,0.1839,0.1819,0.1815,0.1816,0.1792,0.1787,0.1783,0.1779,0.176,0.1756,0.1738,0.1737,0.1735,0.1742,0.1721,0.1731,0.1732,0.1733,0.1764,0.1768,0.1771,0,0,0,0,0,0.1835,0.185,0.1839,0.1838,0.1823,0.1817,0.1814,0.1795,0.1784,0.1788,0.1772,0.1756,0.1743,0.1737,0.1735,0.1742,0.173,0.1732,0.1733,0.1762,0.1767,0.1771,0,0,0,0,0,0,0.1872,0.1847,0.1835,0.1844,0.1833,0.1811,0.1817,0.1802,0.1793,0.179,0.1766,0.1761,0.1762,0.1752,0.1746,0.1749,0.1734,0.1735,0.1757,0.1761,0.1764,0.1767,0.172,0,0,0,0,0,0.1881,0.188,0.1857,0.1867,0.1862,0.184,0.1837,0.1823,0.181,0.1805,0.1789,0.1776,0.1768,0.1764,0.1756,0.1762,0.1755,0.1765,0.1769,0.1772,0.1773,0.177,0.1774,0.1739,0.1739,0.1739,0,0,0.19,0.1886,0.1887,0.1874,0.1863,0.186,0.1837,0.1836,0.1832,0.1804,0.1802,0.179,0.1773,0.1774,0.1774,0.1766,0.1781,0.1774,0.1776,0.1775,0.1772,0.1776,0.1779,0.174,0.1739,0.1739,0,0,0.1932,0.1923,0.1927,0.1917,0.1901,0.1885,0.1886,0.1866,0.1857,0.1854,0.1832,0.1826,0.1815,0.1802,0.1795,0.1816,0.18,0.1814,0.1833,0.1831,0.1833,0.1836,0.1841,0.1843,0.1815,0.1815,0.1816,0,0.1957,0.1953,0.1932,0.1931,0.1924,0.1898,0.19,0.1891,0.1873,0.1868,0.1858,0.184,0.1827,0.1823,0.1828,0.1824,0.1821,0.1817,0.1835,0.1837,0.1839,0.1843,0.1845,0.1817,0.1817,0.1817,0.1817,0,0.1982,0.198,0.1985,0.1968,0.1961,0.1963,0.1939,0.1935,0.1919,0.1904,0.1899,0.1882,0.1868,0.1866,0.1852,0.1859,0.1853,0.184,0.1823,0.1844,0.1848,0.185,0.182,0.1819,0.1819,0.1818,0,0,0.204,0.2007,0.201,0.1999,0.1978,0.1974,0.1971,0.1958,0.1953,0.194,0.1936,0.1924,0.191,0.1901,0.1885,0.1883,0.1897,0.1869,0.1868,0.1873,0.1899,0.1908,0.1911,0.1886,0.1886,0.1886,0.1899,0,0.2066,0.2062,0.2041,0.2042,0.2036,0.2009,0.2006,0.1991,0.1976,0.1967,0.1949,0.194,0.1924,0.1918,0.1915,0.1896,0.1902,0.1895,0.1879,0.1878,0.1883,0.1913,0.1924,0.1938,0.1901,0.1901,0.1902,0,0.2098,0.2085,0.2086,0.206,0.2057,0.2055,0.2038,0.2032,0.2012,0.2,0.1988,0.1969,0.1962,0.1946,0.1934,0.193,0.1921,0.191,0.191,0.1907,0.1891,0.191,0.1943,0.1944,0.1904,0.1904,0.1904,0,0.2135,0.2119,0.2116,0.2109,0.2079,0.2078,0.2065,0.2045,0.2037,0.2021,0.2015,0.1999,0.199,0.1977,0.1952,0.1944,0.1941,0.1925,0.1929,0.193,0.193,0.193,0.196,0.1927,0.1927,0.1927,0.1927,0,0.2167,0.2167,0.2132,0.2131,0.2129,0.2103,0.2101,0.2086,0.2067,0.206,0.2035,0.2028,0.1997,0.1985,0.1966,0.1956,0.1953,0.1941,0.1936,0.1943,0.1944,0.1937,0.1935,0.1927,0.1927,0.1927,0.1927,0,0.2209,0.2186,0.2181,0.2152,0.2145,0.2145,0.2119,0.2114,0.2096,0.2087,0.2083,0.2053,0.2038,0.2012,0.199,0.1976,0.197,0.1962,0.1977,0.1973,0.1979,0.1978,0.2005,0.2005,0.1973,0.1973,0.1973,0,0.223,0.223,0.22,0.2194,0.2182,0.2172,0.2162,0.2135,0.2126,0.2101,0.2098,0.2081,0.2066,0.2042,0.2018,0.1999,0.1989,0.2,0.1986,0.1992,0.1987,0.1987,0.1985,0.2003,0.2003,0.2004,0.2004,0,0.2269,0.2256,0.2244,0.2227,0.2217,0.2202,0.2186,0.2181,0.2149,0.214,0.2124,0.2112,0.2087,0.2069,0.2046,0.2031,0.2011,0.2008,0.2008,0.2015,0.2023,0.2016,0.1984,0.2008,0.2008,0.2007,0.2007,0.2007,0.2299,0.2296,0.2274,0.226,0.2245,0.2229,0.2222,0.2202,0.2189,0.2167,0.2151,0.2135,0.2111,0.2078,0.2063,0.2049,0.204,0.2041,0.204,0.2041,0.2042,0.2025,0.2045,0.2045,0.2045,0.2044,0.2044,0,0.2334,0.2318,0.2306,0.2283,0.2271,0.2254,0.2234,0.2224,0.2211,0.2191,0.2175,0.2155,0.2136,0.2109,0.2087,0.2081,0.2071,0.2076,0.2075,0.2071,0.2052,0.2054,0.2084,0.2084,0.2084,0.2084,0.2084,0.2084,0.2351,0.2344,0.2328,0.2311,0.2294,0.2279,0.2269,0.2253,0.2236,0.2214,0.2199,0.2181,0.2156,0.2132,0.2113,0.2105,0.2098,0.2105,0.2094,0.2077,0.2073,0.207,0.2071,0.2104,0.2104,0.2114,0.2114,0.2115]}]]